Weather History for Marion, IN

Change the Weather History Date:

Tuesday, June 18, 2013

  Actual Average (KMIE) Record (KMIE)
Temperature  
Mean Temperature 70 °F 72 °F  
Max Temperature 77 °F 82 °F 92 °F (1970)
Min Temperature 63 °F 63 °F 44 °F (1999)
Degree Days  
Heating Degree Days 0 0  
Month to date heating degree days 21  
Since 1 June heating degree days 21  
Since 1 July heating degree days 5780  
Cooling Degree Days 5 8  
Month to date cooling degree days 108  
Year to date cooling degree days 191  
Since 1 June cooling degree days 108  
Growing Degree Days 20 (Base 50)    
Moisture  
Dew Point 60 °F    
Average Humidity 68    
Maximum Humidity 95    
Minimum Humidity 47    
Precipitation  
Precipitation 0.00 in 0.15 in 4.74 in (1992)
Month to date precipitation 2.83  
Year to date precipitation 18.40  
Sea Level Pressure  
Sea Level Pressure 29.95 in    
Wind  
Wind Speed 4 mph (NE)    
Max Wind Speed 14 mph    
Max Gust Speed 18 mph    
Visibility 8 miles    
Events      
T = Trace of Precipitation, MM = Missing Value Source: NWS Daily Summary

Daily Weather History Graph

Daily Weather History Graph

Search for Another Location

Airport:

Trip Planner

Search our weather history database for the weather conditions in past years. The results will help you decide how hot, cold, wet, or windy it might be!

Date:

Astronomy

Jun. 18, 2013 Rise Set
Actual Time 6:11 AM EDT 9:15 PM EDT
Civil Twilight 5:38 AM EDT 9:49 PM EDT
Nautical Twilight 4:56 AM EDT 10:31 PM EDT
Astronomical Twilight 4:06 AM EDT 11:21 PM EDT
Moon 3:59 PM EDT (6/18) 2:20 AM EDT (6/18)
Length of Visible Light 16h 10m
Length of Day
15h 04m
Waxing Gibbous, 70% of the Moon is Illuminated
Jun 18
Waxing Gibbous
Jun 23
Full
Jun 30
Last Quarter
Jul 8
New
Jul 15
First Quarter

Hourly Weather History & Observations

Time (EDT) Temp. Dew Point Humidity Pressure Visibility Wind Dir Wind Speed Gust Speed Precip Events Conditions
12:15 AM 69.8 °F 64.6 °F 83% 29.91 in 7.0 mi Calm Calm - N/A   Clear
12:35 AM 69.8 °F 65.1 °F 85% 29.90 in 10.0 mi Calm Calm - N/A   Clear
12:55 AM 69.6 °F 65.5 °F 87% 29.90 in 7.0 mi Calm Calm - N/A   Clear
1:15 AM 69.6 °F 65.1 °F 86% 29.90 in 7.0 mi South 3.5 mph - N/A   Clear
1:35 AM 68.9 °F 64.4 °F 86% 29.89 in 10.0 mi South 3.5 mph - N/A   Clear
1:55 AM 69.3 °F 64.2 °F 84% 29.88 in 7.0 mi Calm Calm - N/A   Clear
2:15 AM 68.7 °F 64.0 °F 85% 29.89 in 10.0 mi SW 5.8 mph - N/A   Clear
2:35 AM 69.4 °F 63.7 °F 82% 29.90 in 10.0 mi West 11.5 mph - N/A   Clear
2:55 AM 69.8 °F 63.9 °F 81% 29.91 in 10.0 mi West 6.9 mph - N/A   Clear
3:15 AM 69.1 °F 63.7 °F 83% 29.90 in 7.0 mi WSW 5.8 mph - N/A   Clear
3:35 AM 68.0 °F 63.5 °F 85% 29.91 in 10.0 mi WNW 4.6 mph - N/A   Clear
3:55 AM 67.1 °F 63.5 °F 88% 29.90 in 7.0 mi West 4.6 mph - N/A   Clear
4:15 AM 66.9 °F 63.7 °F 89% 29.91 in 7.0 mi Calm Calm - N/A   Clear
4:35 AM 66.4 °F 63.7 °F 91% 29.91 in 7.0 mi WNW 4.6 mph - N/A   Clear
4:55 AM 66.6 °F 63.9 °F 91% 29.91 in 7.0 mi WNW 3.5 mph - N/A   Clear
5:15 AM 66.0 °F 63.7 °F 92% 29.91 in 5.0 mi Calm Calm - N/A   Clear
5:35 AM 65.5 °F 63.3 °F 93% 29.91 in 4.0 mi Calm Calm - N/A   Clear
5:55 AM 65.1 °F 63.3 °F 94% 29.91 in 5.0 mi Calm Calm - N/A   Clear
6:15 AM 64.4 °F 62.6 °F 94% 29.91 in 3.0 mi Calm Calm - N/A   Clear
6:35 AM 64.0 °F 62.2 °F 94% 29.92 in 2.5 mi Calm Calm - N/A   Scattered Clouds
6:55 AM 63.9 °F 62.1 °F 94% 29.92 in 1.8 mi Calm Calm - N/A   Scattered Clouds
7:15 AM 64.4 °F 62.8 °F 94% 29.93 in 1.8 mi Calm Calm - N/A   Mist
7:35 AM 65.5 °F 64.0 °F 95% 29.93 in 1.8 mi Calm Calm - N/A   Mist
7:55 AM 66.7 °F 65.1 °F 95% 29.93 in 3.0 mi Calm Calm - N/A   Clear
8:15 AM 67.5 °F 64.6 °F 90% 29.93 in 10.0 mi NE 3.5 mph - N/A   Clear
8:35 AM 68.4 °F 62.1 °F 80% 29.94 in 7.0 mi ENE 3.5 mph - N/A   Clear
8:55 AM 69.8 °F 61.3 °F 74% 29.95 in 7.0 mi Calm Calm - N/A   Scattered Clouds
9:15 AM 70.5 °F 60.4 °F 70% 29.96 in 7.0 mi Calm Calm - N/A   Scattered Clouds
9:35 AM 71.1 °F 59.5 °F 67% 29.96 in 10.0 mi Calm Calm - N/A   Mostly Cloudy
9:55 AM 71.4 °F 59.7 °F 66% 29.96 in 10.0 mi Calm Calm - N/A   Mostly Cloudy
10:15 AM 73.0 °F 59.9 °F 63% 29.96 in 10.0 mi Calm Calm - N/A   Scattered Clouds
10:35 AM 73.0 °F 59.0 °F 61% 29.95 in 7.0 mi ENE 4.6 mph - N/A   Scattered Clouds
10:55 AM 74.1 °F 58.8 °F 59% 29.95 in 10.0 mi NE 6.9 mph - N/A   Scattered Clouds
11:15 AM 75.0 °F 58.5 °F 56% 29.95 in 7.0 mi NE 10.4 mph - N/A   Clear
11:35 AM 75.4 °F 59.0 °F 57% 29.96 in 7.0 mi ENE 9.2 mph - N/A   Scattered Clouds
11:55 AM 75.4 °F 58.6 °F 56% 29.95 in 7.0 mi NNE 8.1 mph - N/A   Clear
12:15 PM 75.9 °F 59.4 °F 56% 29.96 in 7.0 mi NNE 6.9 mph - N/A   Clear
12:35 PM 76.5 °F 59.7 °F 56% 29.95 in 10.0 mi NE 8.1 mph - N/A   Clear
12:55 PM 76.6 °F 60.3 °F 57% 29.96 in 10.0 mi ENE 8.1 mph - N/A   Clear
1:15 PM 77.2 °F 59.9 °F 55% 29.96 in 7.0 mi NE 9.2 mph - N/A   Scattered Clouds
1:35 PM 77.4 °F 60.6 °F 56% 29.96 in 10.0 mi NNE 6.9 mph - N/A   Scattered Clouds
1:55 PM 77.4 °F 61.3 °F 58% 29.96 in 7.0 mi NNE 6.9 mph - N/A   Scattered Clouds
2:15 PM 77.7 °F 61.0 °F 56% 29.96 in 10.0 mi NE 8.1 mph - N/A   Scattered Clouds
2:35 PM 77.4 °F 61.0 °F 57% 29.96 in 10.0 mi NE 11.5 mph - N/A   Mostly Cloudy
2:55 PM 77.5 °F 61.0 °F 57% 29.96 in 7.0 mi NE 11.5 mph - N/A   Scattered Clouds
3:15 PM 77.4 °F 61.2 °F 57% 29.95 in 7.0 mi ENE 10.4 mph - N/A   Scattered Clouds
3:35 PM 77.4 °F 60.8 °F 57% 29.95 in 10.0 mi ENE 12.7 mph - N/A   Mostly Cloudy
3:55 PM 77.2 °F 60.3 °F 56% 29.96 in 10.0 mi NE 6.9 mph - N/A   Mostly Cloudy
4:15 PM 76.6 °F 59.7 °F 56% 29.96 in 10.0 mi ENE 8.1 mph - N/A   Scattered Clouds
4:35 PM 77.4 °F 59.9 °F 55% 29.96 in 10.0 mi NE 8.1 mph - N/A   Scattered Clouds
4:55 PM 77.0 °F 59.4 °F 54% 29.95 in 7.0 mi NE 12.7 mph 16.1 mph N/A   Scattered Clouds
5:15 PM 76.3 °F 59.0 °F 55% 29.95 in 7.0 mi ENE 8.1 mph - N/A   Scattered Clouds
5:35 PM 77.2 °F 57.4 °F 50% 29.95 in 10.0 mi NE 8.1 mph - N/A   Clear
5:55 PM 77.4 °F 56.7 °F 49% 29.95 in 7.0 mi NE 10.4 mph - N/A   Scattered Clouds
6:15 PM 77.5 °F 56.1 °F 47% 29.95 in 10.0 mi NE 10.4 mph - N/A   Scattered Clouds
6:35 PM 77.4 °F 56.1 °F 48% 29.94 in 7.0 mi North 8.1 mph - N/A   Scattered Clouds
6:55 PM 77.2 °F 56.3 °F 48% 29.94 in 10.0 mi NE 8.1 mph - N/A   Clear
7:15 PM 77.0 °F 56.1 °F 48% 29.95 in 10.0 mi North 6.9 mph - N/A   Scattered Clouds
7:35 PM 77.0 °F 55.8 °F 48% 29.96 in 10.0 mi NE 10.4 mph - N/A   Mostly Cloudy
7:55 PM 75.9 °F 55.9 °F 50% 29.96 in 7.0 mi NNE 5.8 mph - N/A   Scattered Clouds
8:15 PM 75.2 °F 55.9 °F 51% 29.96 in 10.0 mi NE 10.4 mph - N/A   Clear
8:35 PM 73.9 °F 55.2 °F 52% 29.97 in 10.0 mi NE 8.1 mph - N/A   Clear
8:55 PM 73.2 °F 55.4 °F 54% 29.97 in 10.0 mi NE 6.9 mph - N/A   Clear
9:15 PM 72.1 °F 56.1 °F 57% 29.98 in 10.0 mi ENE 10.4 mph - N/A   Scattered Clouds
9:35 PM 71.6 °F 55.6 °F 57% 29.98 in 7.0 mi ENE 9.2 mph - N/A   Mostly Cloudy
9:55 PM 70.7 °F 55.8 °F 59% 29.99 in 10.0 mi ENE 10.4 mph - N/A   Scattered Clouds
10:15 PM 70.0 °F 56.1 °F 61% 30.00 in 10.0 mi ENE 12.7 mph 16.1 mph N/A   Scattered Clouds
10:35 PM 69.3 °F 55.9 °F 62% 30.01 in 10.0 mi ENE 10.4 mph - N/A   Clear
10:55 PM 68.4 °F 55.9 °F 64% 30.02 in 10.0 mi ENE 9.2 mph - N/A   Clear
11:15 PM 67.8 °F 55.8 °F 65% 30.03 in 10.0 mi ENE 13.8 mph 18.4 mph N/A   Clear
11:35 PM 67.5 °F 55.2 °F 65% 30.03 in 10.0 mi East 10.4 mph - N/A   Clear
11:55 PM 66.4 °F 55.2 °F 67% 30.04 in 10.0 mi East 10.4 mph 17.3 mph N/A   Clear